This is the latest recevied weather packets stored in our database for station/object F5HCC-10. If no packets are shown the sender has not sent any weather packets the latest 10 day(s).
| Time | Temp. | Humidity | Pressure | Rain* | Wind** | Luminosity | Snow |
|---|---|---|---|---|---|---|---|
| 1777973671 | 25.56° C | 33% | 1010.7 hPa | - | - | - | - |
| 1777972771 | 25.56° C | 33% | 1010.7 hPa | - | - | - | - |
| 1777971871 | 25.56° C | 33% | 1010.6 hPa | - | - | - | - |
| 1777970971 | 25.56° C | 33% | 1010.7 hPa | - | - | - | - |
| 1777970071 | 25.56° C | 33% | 1010.6 hPa | - | - | - | - |
| 1777969170 | 25.56° C | 34% | 1010.8 hPa | - | - | - | - |
| 1777968270 | 25.56° C | 35% | 1010.7 hPa | - | - | - | - |
| 1777967370 | 25.56° C | 33% | 1010.7 hPa | - | - | - | - |
| 1777966470 | 25.56° C | 33% | 1010.9 hPa | - | - | - | - |
| 1777965570 | 25.56° C | 33% | 1010.9 hPa | - | - | - | - |
| 1777964670 | 25.56° C | 33% | 1010.9 hPa | - | - | - | - |
| 1777963770 | 25.56° C | 33% | 1011 hPa | - | - | - | - |
| 1777962870 | 25.56° C | 33% | 1010.9 hPa | - | - | - | - |
| 1777961970 | 25.56° C | 32% | 1011.1 hPa | - | - | - | - |
| 1777961070 | 26.11° C | 32% | 1011 hPa | - | - | - | - |
| 1777960170 | 26.11° C | 33% | 1011.1 hPa | - | - | - | - |
| 1777959269 | 26.11° C | 33% | 1010.9 hPa | - | - | - | - |
| 1777958369 | 25° C | 34% | 1011 hPa | - | - | - | - |
| 1777957469 | 26.67° C | 32% | 1011 hPa | - | - | - | - |
| 1777956569 | 27.22° C | 30% | 1011 hPa | - | - | - | - |
| 1777955669 | 27.78° C | 30% | 1011.1 hPa | - | - | - | - |
| 1777954769 | 27.78° C | 30% | 1011.3 hPa | - | - | - | - |
| 1777953869 | 27.78° C | 30% | 1011.4 hPa | - | - | - | - |
| 1777952969 | 27.78° C | 30% | 1011.3 hPa | - | - | - | - |
| 1777952068 | 27.78° C | 30% | 1011.5 hPa | - | - | - | - |
* Rain since midnight (hover to see other rain measurements)
** Current wind speed in m/s (hover to see current wind gust speed)